[[{"header":{"parameterUnit":"m.s-1","parameterCategory":1,"la1":30.2991,"la2":30.254,"lo1":-89.0895,"lo2":-89.0444,"dy":0.0017,"dx":0.0017,"nx":28,"ny":28,"refTime":"2024-08-19T09:00:00:Z","depth":0,"parameterNumber":2,"parameterNumberName":"U-component_of_WINDS"},"data":[0,0,0,0,0,0,0,0,0,0,0,0,0,0,0,0,0,0,0,0,0,0,0,0,0,0,0,0,0,0,0,0,0,0,0,0,0,0,0,0,0,0,0,0,0,0,0,0,0,0,0,0,0,0,0,0,0,0,1.0063,1.0063,0,1.004,1.004,1.004,1.0016,1.0015,1.0015,1.0015,0.9994,0.9994,0.9994,0,0,0,0,0,0,0,0,0,0,0,0,0,1.0091,1.0091,1.0063,1.0063,1.0063,1.004,1.004,1.004,1.0016,1.0015,1.0015,1.0015,0.9994,0.9994,0.9993,0,0,0,0,0,0,0,0,0,0,0,0,0,1.0075,1.0091,1.0064,1.0048,1.0046,1.0041,1.004,1.004,1.0016,1.0015,1.0015,1.0014,0.9994,0.9994,0.9993,1.0002,0,0,0.9992,0.9992,0,0,0,0,0,0,0,0,1.0076,1.0074,1.0051,1.0049,1.0047,1.003,1.0042,1.0027,1.0016,1.0028,1.0015,1.0014,1.0007,1.0005,1.0002,1.0001,1.0,0.9992,0.9992,0.9992,0.9992,0,0,0,0,0,0,0,1.0077,1.0075,1.0054,1.005,1.0048,1.0044,1.0041,1.0039,1.002,1.0027,1.0025,1.0022,1.0006,1.0003,1.0002,0.9999,0.9992,0.9992,0.9992,0.9992,1.0007,1.0008,0,0,0,0,0,0,1.008,1.0076,1.0055,1.0054,1.0061,1.0044,1.0041,1.0036,1.002,1.0017,1.0023,1.0021,1.0003,1.0002,1.0001,1.0011,0.9992,0.9992,0.9991,1.0007,1.0007,1.0008,0,0,0,0,0,0,1.0081,1.0078,1.0056,1.0064,1.0061,1.0044,1.0039,1.0036,1.0033,1.0017,1.0014,1.0023,1.0003,1.0001,1.0002,1.001,0.9992,0.9991,1.0006,1.0007,1.0008,1.0031,0,0,0,0,0,0,1.0082,1.0079,1.008,1.0065,1.0061,1.0056,1.004,1.0036,1.0032,1.003,1.0016,1.0014,1.0002,1.0003,1.0002,1.0009,0.9991,1.0005,1.0006,1.0007,1.0029,1.0032,1.0035,0,0,0,0,0,1.0083,1.0088,1.008,1.0078,1.0062,1.0057,1.0055,1.0041,1.0033,1.0035,1.0026,1.0014,1.0009,1.0003,1.0002,1.0009,1.0005,1.0006,1.0007,1.0028,1.0032,1.0035,0,0,0,0,0,0,1.0105,1.0085,1.0077,1.0076,1.0069,1.0053,1.0055,1.0045,1.0039,1.0038,1.0022,1.0019,1.0022,1.0016,1.0009,1.0018,1.0006,1.0007,1.0022,1.0025,1.0028,1.003,0.9991,0,0,0,0,0,1.0109,1.0105,1.0089,1.0091,1.0087,1.0072,1.0069,1.0059,1.005,1.0047,1.0037,1.0031,1.0028,1.0026,1.0023,1.0029,1.0027,1.0033,1.0036,1.0039,1.004,1.0045,1.0049,1.0013,1.0013,1.0013,0,0,1.0119,1.0108,1.0106,1.0095,1.0087,1.0085,1.0069,1.0067,1.0066,1.0047,1.0047,1.0041,1.0032,1.0036,1.0038,1.0031,1.005,1.0041,1.0043,1.0042,1.0047,1.0051,1.0054,1.0014,1.0013,1.0013,0,0,1.0136,1.0127,1.0128,1.0121,1.011,1.0101,1.0101,1.0088,1.0082,1.0083,1.0069,1.0069,1.0064,1.0059,1.0056,1.0075,1.0065,1.0075,1.009,1.0095,1.0098,1.01,1.0109,1.0112,1.0076,1.0076,1.0076,0,1.015,1.0144,1.013,1.0129,1.0125,1.0109,1.0111,1.0106,1.0095,1.0094,1.0086,1.0082,1.0074,1.0079,1.0084,1.0081,1.0083,1.0075,1.0099,1.0101,1.0103,1.0111,1.0114,1.0077,1.0077,1.0077,1.0077,0,1.0163,1.016,1.0163,1.0152,1.0149,1.015,1.0137,1.0136,1.0128,1.012,1.0122,1.0114,1.0109,1.011,1.0101,1.0114,1.011,1.0101,1.0088,1.0108,1.0115,1.0118,1.0079,1.0079,1.0078,1.0078,0,0,1.019,1.0174,1.0175,1.0172,1.016,1.0159,1.0161,1.0156,1.0156,1.015,1.0153,1.015,1.0143,1.0139,1.0131,1.0136,1.0154,1.0126,1.0126,1.0133,1.017,1.0177,1.0181,1.0148,1.0148,1.0149,1.0171,0,1.0206,1.0206,1.0194,1.0199,1.0198,1.0184,1.0186,1.018,1.0174,1.0173,1.0167,1.0166,1.0155,1.0153,1.0157,1.0151,1.0161,1.0149,1.0152,1.0152,1.0154,1.0184,1.0191,1.0213,1.0174,1.0174,1.0175,0,1.0222,1.0218,1.0222,1.0213,1.0213,1.0214,1.0211,1.021,1.0205,1.02,1.0198,1.0189,1.0192,1.0181,1.0187,1.0179,1.018,1.0177,1.0178,1.0177,1.0164,1.0186,1.0219,1.0223,1.0179,1.0178,1.0178,0,1.0244,1.0239,1.0241,1.0239,1.0228,1.023,1.0226,1.022,1.0219,1.0217,1.0217,1.0215,1.0215,1.0215,1.0207,1.0198,1.0215,1.0202,1.0213,1.0213,1.0216,1.0216,1.0251,1.0216,1.0216,1.0216,1.0216,0,1.0262,1.0265,1.0251,1.0252,1.0257,1.0245,1.0251,1.0246,1.0242,1.0244,1.0232,1.0235,1.0223,1.0225,1.0219,1.0227,1.0226,1.0224,1.0222,1.0225,1.0226,1.0226,1.0224,1.0217,1.0216,1.0216,1.0216,0,1.0285,1.0276,1.0278,1.0269,1.0267,1.0271,1.0264,1.0266,1.026,1.0263,1.0263,1.0255,1.0257,1.0249,1.025,1.0246,1.0257,1.0253,1.0259,1.0257,1.0269,1.0269,1.0305,1.0311,1.0272,1.0272,1.0272,0,1.0297,1.03,1.0292,1.0292,1.0289,1.0289,1.0289,1.0278,1.0279,1.0275,1.0279,1.028,1.028,1.0286,1.028,1.0282,1.0278,1.0291,1.0278,1.0282,1.028,1.028,1.0281,1.0293,1.0294,1.0294,1.0295,0,1.0321,1.0317,1.0315,1.0314,1.0314,1.0312,1.031,1.0311,1.0301,1.0302,1.0304,1.0305,1.0307,1.0309,1.0311,1.0308,1.0301,1.0299,1.0302,1.0305,1.0309,1.0308,1.0267,1.0298,1.0298,1.0297,1.0297,1.0297,1.0339,1.0342,1.0337,1.0338,1.0335,1.0334,1.0337,1.0332,1.0334,1.0334,1.0329,1.0333,1.0331,1.0332,1.0331,1.0336,1.033,1.0333,1.0335,1.0336,1.0339,1.0308,1.0336,1.0336,1.0335,1.0335,1.0335,0,1.0363,1.036,1.036,1.0358,1.036,1.0352,1.035,1.0352,1.0356,1.0354,1.0356,1.036,1.0364,1.036,1.0363,1.0368,1.0365,1.0369,1.0369,1.0369,1.0342,1.034,1.0372,1.0372,1.0372,1.0372,1.0372,1.0372,1.0375,1.038,1.0376,1.0381,1.0379,1.0382,1.0382,1.0383,1.0382,1.0387,1.039,1.0387,1.0386,1.039,1.0393,1.0392,1.0395,1.0401,1.0399,1.0374,1.037,1.0367,1.0365,1.0401,1.0401,1.0425,1.0425,1.0426]},{"header":{"parameterUnit":"m.s-1","parameterCategory":1,"la1":30.2991,"la2":30.254,"lo1":-89.0895,"lo2":-89.0444,"dy":0.0017,"dx":0.0017,"nx":28,"ny":28,"refTime":"2024-08-19T09:00:00:Z","depth":0,"parameterNumber":3,"parameterNumberName":"V-component_of_WINDS"},"data":[0,0,0,0,0,0,0,0,0,0,0,0,0,0,0,0,0,0,0,0,0,0,0,0,0,0,0,0,0,0,0,0,0,0,0,0,0,0,0,0,0,0,0,0,0,0,0,0,0,0,0,0,0,0,0,0,0,0,-3.0236,-3.0236,0,-3.0155,-3.0154,-3.0153,-3.0141,-3.0142,-3.0143,-3.0143,-3.0056,-3.0053,-3.005,0,0,0,0,0,0,0,0,0,0,0,0,0,-3.0377,-3.0375,-3.0237,-3.0236,-3.0235,-3.0155,-3.0154,-3.0153,-3.0141,-3.0142,-3.0143,-3.0144,-3.0057,-3.0053,-3.0049,0,0,0,0,0,0,0,0,0,0,0,0,0,-3.0308,-3.0374,-3.0237,-3.0219,-3.0217,-3.0155,-3.0154,-3.0153,-3.0141,-3.0142,-3.0143,-3.0144,-3.0058,-3.0053,-3.0049,-2.9998,0,0,-3.0035,-3.0033,0,0,0,0,0,0,0,0,-3.0312,-3.0303,-3.0223,-3.022,-3.0218,-3.016,-3.0171,-3.0101,-3.0141,-3.017,-3.0143,-3.0145,-3.0089,-3.0082,-3.0064,-2.9994,-2.999,-3.0035,-3.0032,-3.003,-3.0029,0,0,0,0,0,0,0,-3.0317,-3.0306,-3.0204,-3.0222,-3.0218,-3.0214,-3.0205,-3.0158,-3.0124,-3.0167,-3.0166,-3.0157,-3.0088,-3.0068,-3.0062,-2.9989,-3.0035,-3.0031,-3.0028,-3.0026,-2.9871,-2.9869,0,0,0,0,0,0,-3.0325,-3.031,-3.0207,-3.0202,-3.0269,-3.021,-3.0201,-3.0177,-3.0124,-3.0117,-3.0156,-3.0157,-3.0076,-3.0067,-3.0059,-2.9994,-3.003,-3.0026,-3.0023,-2.9872,-2.987,-2.9869,0,0,0,0,0,0,-3.0329,-3.0316,-3.021,-3.0256,-3.0242,-3.0207,-3.018,-3.0175,-3.0155,-3.0116,-3.0109,-3.0143,-3.0076,-3.0065,-3.0013,-2.999,-3.0024,-3.0019,-2.9874,-2.9871,-2.987,-2.9864,0,0,0,0,0,0,-3.0333,-3.0318,-3.0299,-3.0255,-3.024,-3.0167,-3.0179,-3.0172,-3.0148,-3.0148,-3.0102,-3.0095,-3.0076,-3.002,-3.0008,-2.9985,-3.0016,-2.9875,-2.9873,-2.987,-2.9866,-2.9862,-2.9859,0,0,0,0,0,-3.0338,-3.03,-3.0298,-3.0285,-3.0216,-3.0166,-3.0156,-3.0137,-3.0146,-3.0126,-3.0101,-3.0097,-2.9996,-3.0015,-3.0002,-2.9976,-2.9877,-2.9873,-2.987,-2.9868,-2.9863,-2.9859,0,0,0,0,0,0,-3.034,-3.0294,-3.0291,-3.0239,-3.0206,-3.0164,-3.0138,-3.0132,-3.0095,-3.0097,-3.0073,-3.0062,-3.0011,-2.9989,-3.0011,-2.9923,-2.9937,-2.9931,-2.9939,-2.9934,-2.9931,-2.9936,-3.0012,0,0,0,0,0,-3.0335,-3.03,-3.0261,-3.0218,-3.0202,-3.0173,-3.0151,-3.0138,-3.0103,-3.0089,-3.006,-3.0025,-2.9985,-2.9959,-2.992,-2.9864,-2.9852,-2.984,-2.9837,-2.9834,-2.9828,-2.9794,-2.9788,-2.9858,-2.9859,-2.9859,0,0,-3.0323,-3.0294,-3.0273,-3.0218,-3.0192,-3.0154,-3.0161,-3.0122,-3.0092,-3.0082,-3.0031,-3.0009,-2.9968,-2.9913,-2.9887,-2.9893,-2.9806,-2.983,-2.9828,-2.9823,-2.9791,-2.9784,-2.9778,-2.9856,-2.9857,-2.9857,0,0,-3.0282,-3.0257,-3.0218,-3.0191,-3.0152,-3.0132,-3.0123,-3.0081,-3.0066,-3.0015,-3.0006,-2.9971,-2.9903,-2.9874,-2.985,-2.9798,-2.9791,-2.9786,-2.9765,-2.9733,-2.9727,-2.9722,-2.9701,-2.9694,-2.9781,-2.9781,-2.9781,0,-3.0271,-3.0215,-3.0198,-3.0158,-3.0133,-3.0124,-3.0083,-3.0058,-3.0007,-2.9989,-2.9997,-2.9911,-2.9883,-2.982,-2.9808,-2.979,-2.9776,-2.979,-2.973,-2.9725,-2.972,-2.9699,-2.9691,-2.978,-2.978,-2.978,-2.9781,0,-3.0203,-3.0165,-3.0138,-3.009,-3.0062,-3.0022,-2.9997,-2.9971,-2.9962,-2.9941,-2.9888,-2.9854,-2.9808,-2.9792,-2.9782,-2.9727,-2.9732,-2.9735,-2.9748,-2.9713,-2.9693,-2.9685,-2.9779,-2.978,-2.978,-2.978,0,0,-3.0159,-3.0103,-3.0093,-3.0071,-3.0026,-2.9995,-2.9954,-2.991,-2.9887,-2.9852,-2.9815,-2.9759,-2.9761,-2.9734,-2.9721,-2.9693,-2.965,-2.9699,-2.9698,-2.9689,-2.9585,-2.9581,-2.9572,-2.9647,-2.9646,-2.9645,-2.9587,0,-3.0111,-3.0038,-3.0021,-2.9958,-2.9921,-2.9912,-2.9876,-2.9844,-2.9823,-2.9788,-2.9765,-2.9724,-2.9732,-2.9715,-2.9688,-2.9662,-2.9629,-2.9666,-2.961,-2.9608,-2.9618,-2.9562,-2.9557,-2.9505,-2.958,-2.9579,-2.9578,0,-3.0044,-3.0009,-2.9942,-2.9901,-2.9885,-2.9853,-2.981,-2.9777,-2.974,-2.9727,-2.9697,-2.9687,-2.9642,-2.9659,-2.9595,-2.962,-2.9597,-2.9581,-2.9578,-2.957,-2.9589,-2.9549,-2.9488,-2.9479,-2.9566,-2.9567,-2.9567,0,-3.0015,-2.9951,-2.9903,-2.9884,-2.9836,-2.9813,-2.9792,-2.9756,-2.973,-2.9693,-2.9675,-2.9633,-2.9609,-2.9576,-2.9553,-2.9568,-2.949,-2.9506,-2.9476,-2.9476,-2.9458,-2.9458,-2.9389,-2.9448,-2.9448,-2.9448,-2.9448,0,-2.9961,-2.992,-2.9889,-2.9859,-2.9812,-2.9793,-2.9746,-2.9724,-2.9693,-2.9657,-2.9647,-2.9613,-2.9587,-2.9549,-2.9532,-2.948,-2.947,-2.9456,-2.9451,-2.9455,-2.9457,-2.9437,-2.9439,-2.9446,-2.9446,-2.9447,-2.9447,0,-2.992,-2.9898,-2.9844,-2.9803,-2.9792,-2.9759,-2.9723,-2.9693,-2.9673,-2.9627,-2.9616,-2.9584,-2.9539,-2.9514,-2.9457,-2.9445,-2.9386,-2.9385,-2.9399,-2.9396,-2.9366,-2.9368,-2.9279,-2.9265,-2.9337,-2.9336,-2.9336,0,-2.9885,-2.9853,-2.981,-2.9785,-2.9764,-2.9725,-2.9699,-2.9679,-2.9651,-2.9607,-2.9581,-2.9535,-2.9497,-2.9425,-2.9396,-2.9352,-2.9348,-2.932,-2.9341,-2.9345,-2.9344,-2.9344,-2.934,-2.9315,-2.9314,-2.9314,-2.9313,0,-2.9825,-2.9816,-2.9779,-2.9738,-2.9707,-2.9673,-2.964,-2.9621,-2.9595,-2.9564,-2.9518,-2.9489,-2.9431,-2.9385,-2.9339,-2.9315,-2.9308,-2.9307,-2.9297,-2.9299,-2.9307,-2.93,-2.9385,-2.9309,-2.9309,-2.9309,-2.931,-2.931,-2.9784,-2.9754,-2.9719,-2.9678,-2.9651,-2.962,-2.9588,-2.9565,-2.9527,-2.9479,-2.947,-2.942,-2.9383,-2.932,-2.9295,-2.9255,-2.926,-2.9247,-2.9243,-2.9239,-2.9236,-2.9317,-2.9247,-2.9247,-2.9247,-2.9248,-2.9248,0,-2.972,-2.9697,-2.966,-2.9614,-2.9581,-2.9581,-2.9543,-2.9515,-2.9473,-2.9439,-2.9402,-2.9348,-2.9304,-2.9272,-2.9226,-2.92,-2.9195,-2.9188,-2.9188,-2.9182,-2.9236,-2.9248,-2.9192,-2.9192,-2.9192,-2.9192,-2.9192,-2.9192,-2.9684,-2.9633,-2.962,-2.9555,-2.9532,-2.9484,-2.9463,-2.9433,-2.9406,-2.9347,-2.931,-2.929,-2.9256,-2.9208,-2.9166,-2.9158,-2.9139,-2.9132,-2.9123,-2.9173,-2.9179,-2.9184,-2.9195,-2.9129,-2.9129,-2.9072,-2.9071,-2.9071]}]]